Time,TemperatureF,DewpointF,PressureIn,WindDirection,WindDirectionDegrees,WindSpeedMPH,WindSpeedGustMPH,Humidity,HourlyPrecipIn,Conditions,Clouds,dailyrainin,SoftwareType,DateUTC
2013-03-09 00:00:00,45.2,37.7,30.08,SE,131,6.0,6.0,75,0.00,,,0.01,Wunderground v.1.15,2013-03-09 06:00:00,
2013-03-09 00:06:00,45.1,38.0,30.08,SE,146,6.0,6.0,76,0.00,,,0.00,Wunderground v.1.15,2013-03-09 06:06:00,
2013-03-09 00:15:00,44.8,38.0,30.07,SSE,159,5.0,5.0,77,0.05,,,0.01,Wunderground v.1.15,2013-03-09 06:15:00,
2013-03-09 00:20:00,44.9,37.8,30.07,ESE,116,6.0,8.0,76,0.05,,,0.01,Wunderground v.1.15,2013-03-09 06:20:00,
2013-03-09 00:25:00,45.1,37.6,30.07,SSE,147,7.0,8.0,75,0.00,,,0.01,Wunderground v.1.15,2013-03-09 06:25:00,
2013-03-09 00:30:00,45.1,37.6,30.06,SE,140,6.0,6.0,75,0.00,,,0.01,Wunderground v.1.15,2013-03-09 06:30:00,
2013-03-09 00:36:00,45.2,37.7,30.06,SSE,153,5.0,10.0,75,0.00,,,0.01,Wunderground v.1.15,2013-03-09 06:36:00,
2013-03-09 00:45:00,45.4,37.6,30.06,SSE,154,6.0,12.0,74,0.00,,,0.01,Wunderground v.1.15,2013-03-09 06:45:00,
2013-03-09 00:50:00,45.5,37.3,30.06,SE,129,6.0,6.0,73,0.00,,,0.01,Wunderground v.1.15,2013-03-09 06:50:00,
2013-03-09 00:55:00,45.7,37.5,30.06,South,186,6.0,6.0,73,0.00,,,0.01,Wunderground v.1.15,2013-03-09 06:55:00,
2013-03-09 01:00:00,45.5,37.7,30.08,ESE,108,5.0,6.0,74,0.00,,,0.01,Wunderground v.1.15,2013-03-09 07:00:00,
2013-03-09 01:06:00,45.1,38.0,30.08,SSE,164,5.0,6.0,76,0.00,,,0.02,Wunderground v.1.15,2013-03-09 07:06:00,
2013-03-09 01:15:00,44.3,38.5,30.06,SE,136,6.0,10.0,80,0.51,,,0.07,Wunderground v.1.15,2013-03-09 07:15:00,
2013-03-09 01:20:00,44.1,38.6,30.06,South,175,7.0,7.0,81,0.10,,,0.07,Wunderground v.1.15,2013-03-09 07:20:00,
2013-03-09 01:25:00,44.1,38.6,30.06,SE,142,6.0,7.0,81,0.05,,,0.07,Wunderground v.1.15,2013-03-09 07:25:00,
2013-03-09 01:31:00,44.1,38.6,30.06,South,184,5.0,5.0,81,0.04,,,0.07,Wunderground v.1.15,2013-03-09 07:31:00,
2013-03-09 01:40:00,44.2,38.4,30.06,SSE,150,5.0,10.0,80,0.00,,,0.07,Wunderground v.1.15,2013-03-09 07:40:00,
2013-03-09 01:45:00,44.5,38.4,30.06,SE,146,6.0,7.0,79,0.00,,,0.07,Wunderground v.1.15,2013-03-09 07:45:00,
2013-03-09 01:50:00,44.5,38.1,30.06,South,175,7.0,7.0,78,0.00,,,0.07,Wunderground v.1.15,2013-03-09 07:50:00,
2013-03-09 01:55:00,44.6,38.2,30.06,SSE,148,6.0,6.0,78,0.00,,,0.07,Wunderground v.1.15,2013-03-09 07:55:00,
2013-03-09 02:00:00,44.6,37.8,30.06,South,174,5.0,5.0,77,0.00,,,0.07,Wunderground v.1.15,2013-03-09 08:00:00,
2013-03-09 02:06:00,44.5,38.1,30.06,South,183,5.0,13.0,78,0.00,,,0.07,Wunderground v.1.15,2013-03-09 08:06:00,
2013-03-09 02:15:00,44.5,37.7,30.04,SE,138,6.0,11.0,77,0.00,,,0.07,Wunderground v.1.15,2013-03-09 08:15:00,
2013-03-09 02:20:00,44.5,37.7,30.04,SSW,194,6.0,9.0,77,0.00,,,0.07,Wunderground v.1.15,2013-03-09 08:20:00,
2013-03-09 02:25:00,44.5,37.4,30.04,East,93,6.0,9.0,76,0.00,,,0.07,Wunderground v.1.15,2013-03-09 08:25:00,
2013-03-09 02:30:00,44.5,38.4,30.03,SSE,148,6.0,6.0,79,0.00,,,0.07,Wunderground v.1.15,2013-03-09 08:30:00,
2013-03-09 02:36:00,44.6,37.2,30.03,SE,144,5.0,6.0,75,0.00,,,0.07,Wunderground v.1.15,2013-03-09 08:36:00,
2013-03-09 02:41:00,44.6,37.2,30.03,ESE,110,6.0,6.0,75,0.00,,,0.07,Wunderground v.1.15,2013-03-09 08:41:00,
2013-03-09 02:50:00,44.8,37.0,30.02,SSE,148,6.0,7.0,74,0.00,,,0.07,Wunderground v.1.15,2013-03-09 08:50:00,
2013-03-09 02:55:00,44.8,37.0,30.02,SSE,167,5.0,5.0,74,0.00,,,0.07,Wunderground v.1.15,2013-03-09 08:55:00,
2013-03-09 03:00:00,44.8,37.4,30.01,South,179,4.0,4.0,75,0.00,,,0.07,Wunderground v.1.15,2013-03-09 09:00:00,
2013-03-09 03:05:00,44.8,37.4,30.01,SSW,194,4.0,4.0,75,0.00,,,0.07,Wunderground v.1.15,2013-03-09 09:05:00,
2013-03-09 03:15:00,44.9,37.1,30.01,SSW,200,4.0,5.0,74,0.00,,,0.07,Wunderground v.1.15,2013-03-09 09:15:00,
2013-03-09 03:20:00,44.9,37.1,30.01,South,171,4.0,11.0,74,0.00,,,0.07,Wunderground v.1.15,2013-03-09 09:20:00,
2013-03-09 03:25:00,45.1,37.3,30.01,SE,145,4.0,11.0,74,0.00,,,0.07,Wunderground v.1.15,2013-03-09 09:25:00,
2013-03-09 03:31:00,45.1,37.0,30.00,SSE,167,4.0,4.0,73,0.00,,,0.07,Wunderground v.1.15,2013-03-09 09:31:00,
2013-03-09 03:36:00,45.2,37.1,30.00,SE,129,4.0,4.0,73,0.00,,,0.07,Wunderground v.1.15,2013-03-09 09:36:00,
2013-03-09 03:45:00,45.4,36.5,30.00,SE,140,5.0,7.0,71,0.00,,,0.07,Wunderground v.1.15,2013-03-09 09:45:00,
2013-03-09 03:50:00,45.5,36.6,30.00,SE,144,5.0,10.0,71,0.00,,,0.07,Wunderground v.1.15,2013-03-09 09:50:00,
2013-03-09 03:55:00,45.5,36.6,30.00,South,171,4.0,4.0,71,0.00,,,0.07,Wunderground v.1.15,2013-03-09 09:55:00,
2013-03-09 04:00:00,45.5,36.6,30.00,SE,146,4.0,5.0,71,0.00,,,0.07,Wunderground v.1.15,2013-03-09 10:00:00,
2013-03-09 04:06:00,45.5,36.6,30.00,South,187,4.0,5.0,71,0.00,,,0.07,Wunderground v.1.15,2013-03-09 10:06:00,
2013-03-09 04:15:00,45.7,36.5,30.00,ESE,123,5.0,6.0,70,0.00,,,0.07,Wunderground v.1.15,2013-03-09 10:15:00,
2013-03-09 04:20:00,45.8,36.2,30.00,SSE,161,4.0,6.0,69,0.00,,,0.07,Wunderground v.1.15,2013-03-09 10:20:00,
2013-03-09 04:25:00,45.8,36.2,30.00,SSE,148,5.0,6.0,69,0.00,,,0.07,Wunderground v.1.15,2013-03-09 10:25:00,
2013-03-09 04:30:00,45.8,36.2,30.00,SE,131,4.0,7.0,69,0.00,,,0.07,Wunderground v.1.15,2013-03-09 10:30:00,
2013-03-09 04:36:00,45.8,36.2,30.00,SSE,157,4.0,4.0,69,0.00,,,0.07,Wunderground v.1.15,2013-03-09 10:36:00,
2013-03-09 04:41:00,45.8,36.2,30.00,SE,140,4.0,4.0,69,0.00,,,0.07,Wunderground v.1.15,2013-03-09 10:41:00,
2013-03-09 04:50:00,45.4,37.2,30.00,SSE,161,2.0,3.0,73,0.00,,,0.08,Wunderground v.1.15,2013-03-09 10:50:00,
2013-03-09 04:55:00,45.1,37.6,30.00,SE,142,2.0,3.0,75,0.00,,,0.08,Wunderground v.1.15,2013-03-09 10:55:00,
2013-03-09 05:01:00,45.1,37.6,30.00,SSE,153,2.0,2.0,75,0.04,,,0.09,Wunderground v.1.15,2013-03-09 11:01:00,
2013-03-09 05:10:00,45.2,37.1,30.00,South,169,3.0,5.0,73,0.04,,,0.09,Wunderground v.1.15,2013-03-09 11:10:00,
2013-03-09 05:15:00,45.5,36.6,29.99,South,173,4.0,4.0,71,0.04,,,0.09,Wunderground v.1.15,2013-03-09 11:15:00,
2013-03-09 05:21:00,45.7,36.8,29.99,SSE,161,5.0,10.0,71,0.00,,,0.09,Wunderground v.1.15,2013-03-09 11:21:00,
2013-03-09 05:30:00,45.7,36.5,29.99,SE,138,5.0,7.0,70,0.00,,,0.09,Wunderground v.1.15,2013-03-09 11:30:00,
2013-03-09 05:35:00,45.7,36.8,29.99,SSE,165,5.0,5.0,71,0.00,,,0.09,Wunderground v.1.15,2013-03-09 11:35:00,
2013-03-09 05:40:00,45.5,36.6,29.99,SE,146,5.0,6.0,71,0.00,,,0.09,Wunderground v.1.15,2013-03-09 11:40:00,
2013-03-09 05:45:00,45.7,36.5,30.00,SE,143,5.0,5.0,70,0.00,,,0.09,Wunderground v.1.15,2013-03-09 11:45:00,
2013-03-09 05:51:00,45.8,36.6,30.00,SSE,150,6.0,6.0,70,0.00,,,0.09,Wunderground v.1.15,2013-03-09 11:51:00,
2013-03-09 06:00:00,46.0,36.4,30.00,SSE,153,5.0,7.0,69,0.00,,,0.09,Wunderground v.1.15,2013-03-09 12:00:00,
2013-03-09 06:05:00,46.1,36.5,30.00,ESE,115,5.0,9.0,69,0.00,,,0.09,Wunderground v.1.15,2013-03-09 12:05:00,
2013-03-09 06:10:00,46.1,36.5,30.00,ESE,121,6.0,6.0,69,0.00,,,0.09,Wunderground v.1.15,2013-03-09 12:10:00,
2013-03-09 06:15:00,46.1,36.5,29.99,SE,131,6.0,6.0,69,0.00,,,0.09,Wunderground v.1.15,2013-03-09 12:15:00,
2013-03-09 06:21:00,46.1,36.5,29.99,ESE,123,5.0,7.0,69,0.00,,,0.09,Wunderground v.1.15,2013-03-09 12:21:00,
2013-03-09 06:30:00,46.2,36.2,29.99,South,176,5.0,7.0,68,0.00,,,0.09,Wunderground v.1.15,2013-03-09 12:30:00,
2013-03-09 06:35:00,46.2,35.8,29.99,SE,126,5.0,5.0,67,0.00,,,0.09,Wunderground v.1.15,2013-03-09 12:35:00,
2013-03-09 06:40:00,46.4,36.4,29.99,SSE,150,5.0,5.0,68,0.00,,,0.09,Wunderground v.1.15,2013-03-09 12:40:00,
2013-03-09 06:46:00,46.4,36.0,29.99,South,190,6.0,10.0,67,0.00,,,0.09,Wunderground v.1.15,2013-03-09 12:46:00,
2013-03-09 06:55:00,46.5,36.1,29.99,SE,145,6.0,10.0,67,0.00,,,0.09,Wunderground v.1.15,2013-03-09 12:55:00,
2013-03-09 07:00:00,46.7,35.9,29.99,South,181,7.0,7.0,66,0.00,,,0.09,Wunderground v.1.15,2013-03-09 13:00:00,
2013-03-09 07:11:00,46.8,36.0,29.99,South,180,4.0,4.0,66,0.00,,,0.09,Wunderground v.1.15,2013-03-09 13:11:00,
2013-03-09 07:20:00,47.1,36.3,29.98,SE,139,6.0,10.0,66,0.00,,,0.09,Wunderground v.1.15,2013-03-09 13:20:00,
2013-03-09 07:25:00,47.1,35.9,29.98,South,169,6.0,6.0,65,0.00,,,0.09,Wunderground v.1.15,2013-03-09 13:25:00,
2013-03-09 07:30:00,47.4,36.2,29.98,SE,146,6.0,9.0,65,0.00,,,0.09,Wunderground v.1.15,2013-03-09 13:30:00,
2013-03-09 07:35:00,47.4,35.8,29.98,SE,142,6.0,6.0,64,0.00,,,0.09,Wunderground v.1.15,2013-03-09 13:35:00,
2013-03-09 07:41:00,47.3,36.1,29.98,ESE,112,5.0,6.0,65,0.00,,,0.09,Wunderground v.1.15,2013-03-09 13:41:00,
2013-03-09 07:46:00,47.6,36.0,29.97,SE,140,5.0,5.0,64,0.00,,,0.09,Wunderground v.1.15,2013-03-09 13:46:00,
2013-03-09 07:51:00,48.0,36.0,29.97,SSE,162,6.0,6.0,63,0.00,,,0.09,Wunderground v.1.15,2013-03-09 13:51:00,
2013-03-09 08:00:00,48.5,36.1,29.98,SE,145,5.0,5.0,62,0.00,,,0.09,Wunderground v.1.15,2013-03-09 14:00:00,
2013-03-09 08:05:00,48.6,35.7,29.98,ESE,121,6.0,6.0,61,0.00,,,0.09,Wunderground v.1.15,2013-03-09 14:05:00,
2013-03-09 08:10:00,48.8,35.9,29.98,ESE,102,6.0,9.0,61,0.00,,,0.09,Wunderground v.1.15,2013-03-09 14:10:00,
2013-03-09 08:15:00,48.8,35.9,29.98,South,175,6.0,9.0,61,0.00,,,0.09,Wunderground v.1.15,2013-03-09 14:15:00,
2013-03-09 08:25:00,49.8,36.5,29.98,SSW,208,5.0,5.0,60,0.00,,,0.09,Wunderground v.1.15,2013-03-09 14:25:00,
2013-03-09 08:30:00,50.8,36.5,29.97,SSE,147,5.0,5.0,58,0.00,,,0.09,Wunderground v.1.15,2013-03-09 14:30:00,
2013-03-09 08:35:00,51.4,35.8,29.97,ESE,109,7.0,7.0,55,0.00,,,0.09,Wunderground v.1.15,2013-03-09 14:35:00,
2013-03-09 08:41:00,52.2,36.5,29.97,SSE,156,7.0,7.0,55,0.00,,,0.09,Wunderground v.1.15,2013-03-09 14:41:00,
2013-03-09 08:50:00,53.1,36.4,29.96,SE,145,7.0,9.0,53,0.00,,,0.09,Wunderground v.1.15,2013-03-09 14:50:00,
2013-03-09 08:55:00,53.6,37.3,29.96,SSE,152,6.0,9.0,54,0.00,,,0.09,Wunderground v.1.15,2013-03-09 14:55:00,
2013-03-09 09:00:00,53.9,37.1,29.95,SSW,192,6.0,6.0,53,0.00,,,0.09,Wunderground v.1.15,2013-03-09 15:00:00,
2013-03-09 09:05:00,54.2,36.9,29.95,SE,142,6.0,6.0,52,0.00,,,0.09,Wunderground v.1.15,2013-03-09 15:05:00,
2013-03-09 09:10:00,55.0,38.2,29.95,SE,145,6.0,6.0,53,0.00,,,0.09,Wunderground v.1.15,2013-03-09 15:10:00,
2013-03-09 09:16:00,56.0,39.1,29.95,SE,133,5.0,6.0,53,0.00,,,0.09,Wunderground v.1.15,2013-03-09 15:16:00,
2013-03-09 09:21:00,56.5,38.1,29.95,SE,132,5.0,6.0,50,0.00,,,0.09,Wunderground v.1.15,2013-03-09 15:21:00,
2013-03-09 09:30:00,56.6,37.6,29.93,South,176,7.0,7.0,49,0.00,,,0.09,Wunderground v.1.15,2013-03-09 15:30:00,
2013-03-09 09:35:00,57.0,38.0,29.93,SSE,147,7.0,7.0,49,0.00,,,0.09,Wunderground v.1.15,2013-03-09 15:35:00,
2013-03-09 09:40:00,57.6,38.0,29.93,SSE,161,7.0,17.0,48,0.00,,,0.09,Wunderground v.1.15,2013-03-09 15:40:00,
2013-03-09 09:45:00,58.0,36.2,29.93,WSW,246,7.0,8.0,44,0.00,,,0.09,Wunderground v.1.15,2013-03-09 15:45:00,
2013-03-09 09:50:00,58.6,37.3,29.93,ESE,121,7.0,8.0,45,0.00,,,0.09,Wunderground v.1.15,2013-03-09 15:50:00,
2013-03-09 09:56:00,58.9,37.6,29.93,WSW,242,6.0,6.0,45,0.00,,,0.09,Wunderground v.1.15,2013-03-09 15:56:00,
2013-03-09 10:01:00,59.2,37.9,29.92,SSE,163,7.0,7.0,45,0.00,,,0.09,Wunderground v.1.15,2013-03-09 16:01:00,
2013-03-09 10:06:00,59.6,37.1,29.92,SSE,161,7.0,10.0,43,0.00,,,0.09,Wunderground v.1.15,2013-03-09 16:06:00,
2013-03-09 10:15:00,60.5,36.7,29.91,SW,233,7.0,7.0,41,0.00,,,0.09,Wunderground v.1.15,2013-03-09 16:15:00,
2013-03-09 10:20:00,61.2,37.3,29.91,South,182,7.0,10.0,41,0.00,,,0.09,Wunderground v.1.15,2013-03-09 16:20:00,
2013-03-09 10:25:00,61.6,37.0,29.91,SE,126,7.0,7.0,40,0.00,,,0.09,Wunderground v.1.15,2013-03-09 16:25:00,
2013-03-09 10:30:00,62.1,34.8,29.91,SE,128,7.0,7.0,36,0.00,,,0.09,Wunderground v.1.15,2013-03-09 16:30:00,
2013-03-09 10:35:00,62.6,35.9,29.91,SSE,153,6.0,6.0,37,0.00,,,0.09,Wunderground v.1.15,2013-03-09 16:35:00,
2013-03-09 10:41:00,62.9,35.5,29.91,South,170,6.0,9.0,36,0.00,,,0.09,Wunderground v.1.15,2013-03-09 16:41:00,
2013-03-09 10:46:00,62.9,36.9,29.91,SE,132,7.0,7.0,38,0.00,,,0.09,Wunderground v.1.15,2013-03-09 16:46:00,
2013-03-09 10:55:00,63.2,36.5,29.91,ESE,117,6.0,7.0,37,0.00,,,0.09,Wunderground v.1.15,2013-03-09 16:55:00,
2013-03-09 11:01:00,63.2,35.1,29.89,SSE,148,7.0,7.0,35,0.00,,,0.09,Wunderground v.1.15,2013-03-09 17:01:00,
2013-03-09 11:06:00,63.5,36.0,29.89,WSW,241,8.0,8.0,36,0.00,,,0.09,Wunderground v.1.15,2013-03-09 17:06:00,
2013-03-09 11:15:00,63.5,35.3,29.88,SSE,167,7.0,10.0,35,0.00,,,0.09,Wunderground v.1.15,2013-03-09 17:15:00,
2013-03-09 11:20:00,63.7,36.2,29.88,South,170,7.0,10.0,36,0.00,,,0.09,Wunderground v.1.15,2013-03-09 17:20:00,
2013-03-09 11:25:00,63.7,37.6,29.88,SE,144,7.0,17.0,38,0.00,,,0.09,Wunderground v.1.15,2013-03-09 17:25:00,
2013-03-09 11:31:00,63.7,36.9,29.88,South,185,8.0,17.0,37,0.00,,,0.09,Wunderground v.1.15,2013-03-09 17:31:00,
2013-03-09 11:36:00,64.2,36.7,29.88,SSW,196,9.0,9.0,36,0.00,,,0.09,Wunderground v.1.15,2013-03-09 17:36:00,
2013-03-09 11:45:00,64.5,36.9,29.87,SSE,165,8.0,10.0,36,0.00,,,0.09,Wunderground v.1.15,2013-03-09 17:45:00,
2013-03-09 11:50:00,64.5,36.9,29.87,SE,145,9.0,9.0,36,0.00,,,0.09,Wunderground v.1.15,2013-03-09 17:50:00,
2013-03-09 11:55:00,64.7,38.5,29.87,South,169,8.0,9.0,38,0.00,,,0.09,Wunderground v.1.15,2013-03-09 17:55:00,
2013-03-09 12:00:00,65.3,38.3,29.86,SSE,165,7.0,7.0,37,0.00,,,0.09,Wunderground v.1.15,2013-03-09 18:00:00,
2013-03-09 12:05:00,65.6,37.9,29.86,SSE,167,8.0,8.0,36,0.00,,,0.09,Wunderground v.1.15,2013-03-09 18:05:00,
2013-03-09 12:10:00,65.8,38.1,29.86,South,181,9.0,10.0,36,0.00,,,0.09,Wunderground v.1.15,2013-03-09 18:10:00,
2013-03-09 12:16:00,66.3,39.9,29.85,SW,226,8.0,10.0,38,0.00,,,0.09,Wunderground v.1.15,2013-03-09 18:16:00,
2013-03-09 12:21:00,66.6,38.8,29.85,SSW,207,8.0,9.0,36,0.00,,,0.09,Wunderground v.1.15,2013-03-09 18:21:00,
2013-03-09 12:30:00,67.1,39.9,29.84,SSW,195,8.0,9.0,37,0.00,,,0.09,Wunderground v.1.15,2013-03-09 18:30:00,
2013-03-09 12:35:00,67.3,41.5,29.84,SSE,161,8.0,8.0,39,0.00,,,0.09,Wunderground v.1.15,2013-03-09 18:35:00,
2013-03-09 12:40:00,67.6,41.1,29.84,WSW,252,7.0,8.0,38,0.00,,,0.09,Wunderground v.1.15,2013-03-09 18:40:00,
2013-03-09 12:45:00,67.8,41.3,29.83,SE,134,7.0,7.0,38,0.00,,,0.09,Wunderground v.1.15,2013-03-09 18:45:00,
2013-03-09 12:50:00,67.9,41.3,29.83,SSE,163,7.0,7.0,38,0.00,,,0.09,Wunderground v.1.15,2013-03-09 18:50:00,
2013-03-09 12:56:00,67.3,41.5,29.83,South,188,7.0,10.0,39,0.00,,,0.09,Wunderground v.1.15,2013-03-09 18:56:00,
2013-03-09 13:00:00,68.1,42.9,29.81,SE,139,7.0,7.0,40,0.00,,,0.09,Wunderground v.1.15,2013-03-09 19:00:00,
2013-03-09 13:06:00,68.6,43.9,29.81,ESE,118,7.0,7.0,41,0.00,,,0.09,Wunderground v.1.15,2013-03-09 19:06:00,
2013-03-09 13:11:00,69.3,45.2,29.81,SSE,149,8.0,8.0,42,0.00,,,0.09,Wunderground v.1.15,2013-03-09 19:11:00,
2013-03-09 13:20:00,70.9,46.0,29.79,SSW,207,9.0,12.0,41,0.00,,,0.09,Wunderground v.1.15,2013-03-09 19:20:00,
2013-03-09 13:25:00,71.5,46.6,29.79,SE,140,8.0,8.0,41,0.00,,,0.09,Wunderground v.1.15,2013-03-09 19:25:00,
2013-03-09 13:30:00,71.3,46.4,29.77,SSE,167,8.0,10.0,41,0.00,,,0.09,Wunderground v.1.15,2013-03-09 19:30:00,
2013-03-09 13:35:00,70.1,45.3,29.77,SE,145,8.0,9.0,41,0.00,,,0.09,Wunderground v.1.15,2013-03-09 19:35:00,
2013-03-09 13:40:00,69.6,44.8,29.77,SW,229,9.0,9.0,41,0.00,,,0.09,Wunderground v.1.15,2013-03-09 19:40:00,
2013-03-09 13:46:00,69.6,45.5,29.76,South,180,8.0,8.0,42,0.00,,,0.09,Wunderground v.1.15,2013-03-09 19:46:00,
2013-03-09 13:55:00,70.1,45.9,29.76,WSW,237,9.0,12.0,42,0.00,,,0.09,Wunderground v.1.15,2013-03-09 19:55:00,
2013-03-09 14:00:00,70.8,45.9,29.76,SSE,163,8.0,14.0,41,0.00,,,0.09,Wunderground v.1.15,2013-03-09 20:00:00,
2013-03-09 14:05:00,69.9,45.1,29.76,South,171,7.0,14.0,41,0.00,,,0.09,Wunderground v.1.15,2013-03-09 20:05:00,
2013-03-09 14:10:00,69.6,45.5,29.76,SSW,203,7.0,7.0,42,0.00,,,0.09,Wunderground v.1.15,2013-03-09 20:10:00,
2013-03-09 14:15:00,70.4,45.6,29.76,ESE,119,8.0,8.0,41,0.00,,,0.09,Wunderground v.1.15,2013-03-09 20:15:00,
2013-03-09 14:21:00,70.8,45.9,29.76,SSW,198,7.0,7.0,41,0.00,,,0.09,Wunderground v.1.15,2013-03-09 20:21:00,
2013-03-09 14:26:00,70.4,45.6,29.76,South,171,7.0,7.0,41,0.00,,,0.09,Wunderground v.1.15,2013-03-09 20:26:00,
2013-03-09 14:36:00,70.4,46.8,29.75,South,190,6.0,10.0,43,0.00,,,0.09,Wunderground v.1.15,2013-03-09 20:36:00,
2013-03-09 14:45:00,69.4,46.5,29.76,SW,230,7.0,10.0,44,0.00,,,0.09,Wunderground v.1.15,2013-03-09 20:45:00,
2013-03-09 14:50:00,69.1,47.4,29.76,South,183,7.0,7.0,46,0.00,,,0.09,Wunderground v.1.15,2013-03-09 20:50:00,
2013-03-09 14:55:00,68.6,47.6,29.76,SSE,148,6.0,13.0,47,0.00,,,0.09,Wunderground v.1.15,2013-03-09 20:55:00,
2013-03-09 15:00:00,68.3,47.3,29.76,SSW,194,6.0,6.0,47,0.00,,,0.09,Wunderground v.1.15,2013-03-09 21:00:00,
2013-03-09 15:05:00,68.1,47.7,29.76,South,178,8.0,8.0,48,0.00,,,0.09,Wunderground v.1.15,2013-03-09 21:05:00,
2013-03-09 15:10:00,68.4,47.4,29.76,SSW,204,9.0,9.0,47,0.00,,,0.09,Wunderground v.1.15,2013-03-09 21:10:00,
2013-03-09 15:20:00,68.1,47.7,29.75,South,184,7.0,7.0,48,0.00,,,0.09,Wunderground v.1.15,2013-03-09 21:20:00,
2013-03-09 15:25:00,67.9,48.0,29.75,South,179,7.0,12.0,49,0.00,,,0.09,Wunderground v.1.15,2013-03-09 21:25:00,
2013-03-09 15:30:00,67.9,48.6,29.75,East,92,6.0,10.0,50,0.00,,,0.09,Wunderground v.1.15,2013-03-09 21:30:00,
2013-03-09 15:35:00,67.6,48.3,29.75,South,172,6.0,10.0,50,0.00,,,0.09,Wunderground v.1.15,2013-03-09 21:35:00,
2013-03-09 15:40:00,67.4,48.1,29.75,SE,146,6.0,8.0,50,0.00,,,0.09,Wunderground v.1.15,2013-03-09 21:40:00,
2013-03-09 15:46:00,67.6,47.8,29.75,SSE,157,6.0,8.0,49,0.00,,,0.09,Wunderground v.1.15,2013-03-09 21:46:00,
2013-03-09 15:51:00,67.4,48.1,29.75,South,188,6.0,6.0,50,0.00,,,0.09,Wunderground v.1.15,2013-03-09 21:51:00,
2013-03-09 16:00:00,66.9,48.7,29.76,ESE,109,5.0,7.0,52,0.00,,,0.09,Wunderground v.1.15,2013-03-09 22:00:00,
2013-03-09 16:05:00,66.4,48.7,29.76,SSE,164,5.0,7.0,53,0.00,,,0.09,Wunderground v.1.15,2013-03-09 22:05:00,
2013-03-09 16:10:00,66.3,49.6,29.76,SSE,162,4.0,4.0,55,0.00,,,0.09,Wunderground v.1.15,2013-03-09 22:10:00,
2013-03-09 16:15:00,66.1,49.5,29.76,South,191,4.0,4.0,55,0.00,,,0.09,Wunderground v.1.15,2013-03-09 22:15:00,
2013-03-09 16:20:00,66.0,49.4,29.76,SSE,150,4.0,10.0,55,0.00,,,0.09,Wunderground v.1.15,2013-03-09 22:20:00,
2013-03-09 16:25:00,66.0,49.4,29.76,South,181,4.0,10.0,55,0.00,,,0.09,Wunderground v.1.15,2013-03-09 22:25:00,
2013-03-09 16:31:00,65.8,49.2,29.75,SSE,150,3.0,3.0,55,0.00,,,0.09,Wunderground v.1.15,2013-03-09 22:31:00,
2013-03-09 16:36:00,65.8,48.7,29.75,SE,129,4.0,9.0,54,0.00,,,0.09,Wunderground v.1.15,2013-03-09 22:36:00,
2013-03-09 16:41:00,65.8,49.7,29.75,South,190,5.0,7.0,56,0.00,,,0.09,Wunderground v.1.15,2013-03-09 22:41:00,
2013-03-09 16:50:00,65.5,50.8,29.75,SSE,159,7.0,7.0,59,0.00,,,0.09,Wunderground v.1.15,2013-03-09 22:50:00,
2013-03-09 16:55:00,65.2,50.5,29.75,SE,144,7.0,10.0,59,0.00,,,0.09,Wunderground v.1.15,2013-03-09 22:55:00,
2013-03-09 17:00:00,64.8,50.6,29.75,SE,129,7.0,7.0,60,0.00,,,0.09,Wunderground v.1.15,2013-03-09 23:00:00,
2013-03-09 17:05:00,64.5,50.3,29.75,SSW,193,6.0,7.0,60,0.00,,,0.09,Wunderground v.1.15,2013-03-09 23:05:00,
2013-03-09 17:15:00,64.2,50.9,29.76,SSE,154,5.0,10.0,62,0.00,,,0.09,Wunderground v.1.15,2013-03-09 23:15:00,
2013-03-09 17:20:00,63.7,52.1,29.76,SSE,159,5.0,9.0,66,0.00,,,0.09,Wunderground v.1.15,2013-03-09 23:20:00,
2013-03-09 17:25:00,62.6,52.7,29.76,SE,142,5.0,9.0,70,0.00,,,0.09,Wunderground v.1.15,2013-03-09 23:25:00,
2013-03-09 17:30:00,61.8,52.7,29.76,SSE,155,5.0,5.0,72,0.00,,,0.09,Wunderground v.1.15,2013-03-09 23:30:00,
2013-03-09 17:36:00,61.5,52.8,29.76,South,184,4.0,6.0,73,0.00,,,0.09,Wunderground v.1.15,2013-03-09 23:36:00,
2013-03-09 17:41:00,61.3,52.9,29.76,SSE,152,5.0,5.0,74,0.00,,,0.09,Wunderground v.1.15,2013-03-09 23:41:00,
2013-03-09 17:50:00,61.0,53.0,29.76,SSE,161,2.0,5.0,75,0.00,,,0.09,Wunderground v.1.15,2013-03-09 23:50:00,
2013-03-09 17:55:00,60.9,52.9,29.76,South,175,2.0,3.0,75,0.00,,,0.09,Wunderground v.1.15,2013-03-09 23:55:00,
2013-03-09 18:01:00,60.7,52.7,29.75,SE,142,2.0,2.0,75,0.00,,,0.09,Wunderground v.1.15,2013-03-10 00:01:00,
2013-03-09 18:10:00,60.5,52.5,29.75,SE,140,3.0,5.0,75,0.00,,,0.09,Wunderground v.1.15,2013-03-10 00:10:00,
2013-03-09 18:15:00,60.5,52.5,29.74,SE,131,3.0,4.0,75,0.00,,,0.09,Wunderground v.1.15,2013-03-10 00:15:00,
2013-03-09 18:21:00,60.4,52.4,29.74,SE,146,3.0,4.0,75,0.00,,,0.09,Wunderground v.1.15,2013-03-10 00:21:00,
2013-03-09 18:26:00,60.5,52.5,29.74,SSE,148,3.0,4.0,75,0.00,,,0.09,Wunderground v.1.15,2013-03-10 00:26:00,
2013-03-09 18:35:00,60.4,52.1,29.74,SSE,149,1.0,4.0,74,0.00,,,0.09,Wunderground v.1.15,2013-03-10 00:35:00,
2013-03-09 18:40:00,60.4,52.1,29.74,SSE,150,2.0,4.0,74,0.00,,,0.09,Wunderground v.1.15,2013-03-10 00:40:00,
2013-03-09 18:45:00,60.2,53.0,29.73,SSE,149,2.0,4.0,77,0.68,,,0.16,Wunderground v.1.15,2013-03-10 00:45:00,
2013-03-09 18:50:00,59.2,53.4,29.73,SSE,149,2.0,2.0,81,0.19,,,0.18,Wunderground v.1.15,2013-03-10 00:50:00,
2013-03-09 18:55:00,58.7,53.5,29.73,SE,142,2.0,2.0,83,0.16,,,0.19,Wunderground v.1.15,2013-03-10 00:55:00,
2013-03-09 19:00:00,58.3,53.5,29.73,East,92,2.0,2.0,84,0.08,,,0.19,Wunderground v.1.15,2013-03-10 01:00:00,
2013-03-09 19:06:00,58.1,53.3,29.73,South,186,1.0,2.0,84,0.05,,,0.19,Wunderground v.1.15,2013-03-10 01:06:00,
2013-03-09 19:11:00,58.1,53.3,29.73,SSW,197,2.0,2.0,84,0.00,,,0.19,Wunderground v.1.15,2013-03-10 01:11:00,
2013-03-09 19:20:00,58.0,53.5,29.73,SSE,150,1.0,2.0,85,0.00,,,0.20,Wunderground v.1.15,2013-03-10 01:20:00,
2013-03-09 19:25:00,57.8,53.6,29.73,SSE,150,0.0,0.0,86,0.00,,,0.20,Wunderground v.1.15,2013-03-10 01:25:00,
2013-03-09 19:30:00,57.6,53.4,29.73,SSE,150,0.0,0.0,86,0.04,,,0.20,Wunderground v.1.15,2013-03-10 01:30:00,
2013-03-09 19:35:00,57.5,53.7,29.73,SSE,150,0.0,0.0,87,0.04,,,0.20,Wunderground v.1.15,2013-03-10 01:35:00,
2013-03-09 19:40:00,57.3,53.8,29.73,SSE,150,0.0,0.0,88,0.05,,,0.21,Wunderground v.1.15,2013-03-10 01:40:00,
2013-03-09 19:50:00,57.0,53.8,29.75,SSW,200,1.0,1.0,89,0.09,,,0.24,Wunderground v.1.15,2013-03-10 01:50:00,
2013-03-09 19:55:00,57.3,54.1,29.75,SSW,197,2.0,2.0,89,0.91,,,0.28,Wunderground v.1.15,2013-03-10 01:55:00,
2013-03-09 20:00:00,57.5,54.3,29.75,SSW,194,3.0,3.0,89,0.49,,,0.32,Wunderground v.1.15,2013-03-10 02:00:00,
2013-03-09 20:05:00,57.3,54.4,29.75,SSE,159,3.0,3.0,90,0.10,,,0.32,Wunderground v.1.15,2013-03-10 02:05:00,
2013-03-09 20:10:00,57.5,54.6,29.75,SSE,167,3.0,3.0,90,0.05,,,0.32,Wunderground v.1.15,2013-03-10 02:10:00,
2013-03-09 20:16:00,57.6,54.4,29.74,SSW,207,3.0,3.0,89,0.05,,,0.33,Wunderground v.1.15,2013-03-10 02:16:00,
2013-03-09 20:25:00,58.0,54.8,29.74,South,185,2.0,5.0,89,0.69,,,0.38,Wunderground v.1.15,2013-03-10 02:25:00,
2013-03-09 20:30:00,58.0,54.8,29.75,South,185,1.0,1.0,89,0.10,,,0.38,Wunderground v.1.15,2013-03-10 02:30:00,
2013-03-09 20:36:00,57.8,54.9,29.75,SSW,211,0.0,1.0,90,0.07,,,0.39,Wunderground v.1.15,2013-03-10 02:36:00,
2013-03-09 20:41:00,57.6,54.7,29.75,SSW,211,0.0,0.0,90,0.07,,,0.39,Wunderground v.1.15,2013-03-10 02:41:00,
2013-03-09 20:50:00,57.5,54.6,29.74,SSW,211,0.0,0.0,90,0.05,,,0.40,Wunderground v.1.15,2013-03-10 02:50:00,
2013-03-09 20:55:00,57.3,54.7,29.74,SSW,211,0.0,0.0,91,0.06,,,0.41,Wunderground v.1.15,2013-03-10 02:55:00,
2013-03-09 21:00:00,57.2,54.6,29.75,SSW,211,0.0,0.0,91,0.31,,,0.44,Wunderground v.1.15,2013-03-10 03:00:00,
2013-03-09 21:05:00,57.0,54.7,29.75,SSW,211,0.0,0.0,92,0.09,,,0.44,Wunderground v.1.15,2013-03-10 03:05:00,
2013-03-09 21:10:00,57.2,54.9,29.75,SSW,211,0.0,0.0,92,0.05,,,0.44,Wunderground v.1.15,2013-03-10 03:10:00,
2013-03-09 21:15:00,57.2,54.9,29.75,SSW,211,0.0,0.0,92,0.04,,,0.44,Wunderground v.1.15,2013-03-10 03:15:00,
2013-03-09 21:20:00,57.0,54.7,29.75,SSW,211,0.0,0.0,92,0.00,,,0.44,Wunderground v.1.15,2013-03-10 03:20:00,
2013-03-09 21:26:00,56.9,54.6,29.75,SSW,211,0.0,0.0,92,0.00,,,0.45,Wunderground v.1.15,2013-03-10 03:26:00,
2013-03-09 21:31:00,56.9,54.9,29.72,SSW,211,0.0,0.0,93,0.13,,,0.46,Wunderground v.1.15,2013-03-10 03:31:00,
2013-03-09 21:35:00,56.7,54.7,29.72,SE,136,0.0,0.0,93,0.08,,,0.46,Wunderground v.1.15,2013-03-10 03:35:00,
2013-03-09 21:41:00,56.7,54.7,29.72,SE,135,1.0,1.0,93,0.05,,,0.46,Wunderground v.1.15,2013-03-10 03:41:00,
2013-03-09 21:50:00,56.9,54.9,29.71,SE,143,1.0,2.0,93,0.18,,,0.48,Wunderground v.1.15,2013-03-10 03:50:00,
2013-03-09 21:55:00,57.0,55.0,29.71,SSE,153,3.0,3.0,93,0.08,,,0.48,Wunderground v.1.15,2013-03-10 03:55:00,
2013-03-09 22:00:00,57.0,55.0,29.71,ESE,113,3.0,3.0,93,0.05,,,0.48,Wunderground v.1.15,2013-03-10 04:00:00,
2013-03-09 22:05:00,57.0,55.0,29.71,SSE,153,2.0,3.0,93,0.00,,,0.48,Wunderground v.1.15,2013-03-10 04:05:00,
2013-03-09 22:10:00,57.0,55.0,29.71,SE,127,2.0,2.0,93,0.00,,,0.48,Wunderground v.1.15,2013-03-10 04:10:00,
2013-03-09 22:16:00,57.0,55.0,29.70,SE,127,1.0,2.0,93,0.00,,,0.48,Wunderground v.1.15,2013-03-10 04:16:00,
2013-03-09 22:21:00,56.9,54.9,29.70,SE,130,1.0,2.0,93,0.00,,,0.48,Wunderground v.1.15,2013-03-10 04:21:00,
2013-03-09 22:30:00,56.9,54.9,29.70,SE,128,0.0,2.0,93,0.00,,,0.49,Wunderground v.1.15,2013-03-10 04:30:00,
2013-03-09 22:35:00,56.9,54.9,29.70,SE,128,0.0,0.0,93,0.00,,,0.49,Wunderground v.1.15,2013-03-10 04:35:00,
2013-03-09 22:40:00,56.9,54.9,29.70,SSW,211,0.0,0.0,93,0.27,,,0.51,Wunderground v.1.15,2013-03-10 04:40:00,
2013-03-09 22:45:00,57.0,55.0,29.73,SSW,211,1.0,1.0,93,0.14,,,0.53,Wunderground v.1.15,2013-03-10 04:45:00,
2013-03-09 22:50:00,57.0,55.0,29.73,SSE,156,1.0,2.0,93,0.49,,,0.56,Wunderground v.1.15,2013-03-10 04:50:00,
2013-03-09 22:55:00,57.2,55.2,29.73,South,169,2.0,2.0,93,0.23,,,0.58,Wunderground v.1.15,2013-03-10 04:55:00,
2013-03-09 23:00:00,57.2,55.2,29.72,South,169,2.0,2.0,93,0.15,,,0.59,Wunderground v.1.15,2013-03-10 05:00:00,
2013-03-09 23:05:00,57.2,55.2,29.72,SE,137,2.0,3.0,93,0.26,,,0.61,Wunderground v.1.15,2013-03-10 05:05:00,
2013-03-09 23:11:00,57.2,55.2,29.72,SSE,167,2.0,2.0,93,0.16,,,0.63,Wunderground v.1.15,2013-03-10 05:11:00,
2013-03-09 23:20:00,57.2,55.2,29.72,South,176,2.0,4.0,93,0.50,,,0.68,Wunderground v.1.15,2013-03-10 05:20:00,
2013-03-09 23:25:00,57.2,55.2,29.72,South,171,2.0,3.0,93,0.25,,,0.70,Wunderground v.1.15,2013-03-10 05:25:00,
2013-03-09 23:31:00,57.0,55.0,29.71,SE,142,2.0,6.0,93,0.14,,,0.71,Wunderground v.1.15,2013-03-10 05:31:00,
2013-03-09 23:36:00,57.0,55.0,29.71,South,169,3.0,3.0,93,0.12,,,0.72,Wunderground v.1.15,2013-03-10 05:36:00,
2013-03-09 23:45:00,56.9,54.9,29.71,SW,228,2.0,4.0,93,0.05,,,0.73,Wunderground v.1.15,2013-03-10 05:45:00,
2013-03-09 23:50:00,56.9,54.9,29.71,SSE,166,2.0,5.0,93,0.15,,,0.74,Wunderground v.1.15,2013-03-10 05:50:00,
2013-03-09 23:56:00,56.9,54.9,29.71,SSE,163,2.0,5.0,93,0.17,,,0.76,Wunderground v.1.15,2013-03-10 05:56:00,